.
WxDataArchive / Data Records for 2014-06-17
2014-06-16 June 2014 2014-06-18

Data Records for Tuesday, 17 June 2014

Time	Temp	Chill	HIndex	Humid	Dewpt	 Wind 	HiWind	WindDir	Rain 	Barom
-----	----	-----	------	-----	-----	------	------	-------	-----	-----
00:00	77.6	77.6	79.6	75	69.0	0	0	---	0.00	29.973 
00:05	77.6	77.6	79.6	75	69.0	0	0	---	0.00	29.973 
00:10	77.4	77.4	79.3	75	68.8	0	0	---	0.00	29.973 
00:15	77.2	77.2	79.0	76	69.0	0	0	---	0.00	29.968 
00:20	77.0	77.0	78.7	76	68.8	0	0	---	0.00	29.968 
00:25	76.8	76.8	78.4	76	68.6	0	1	90	0.00	29.968 
00:30	76.8	76.8	78.4	77	69.0	0	0	---	0.00	29.962 
00:35	76.7	76.7	78.2	77	68.9	0	0	---	0.00	29.962 
00:40	76.5	76.5	77.9	77	68.7	0	0	---	0.00	29.962 
00:45	76.3	76.3	77.6	78	68.9	0	0	---	0.00	29.953 
00:50	76.1	76.1	77.3	78	68.7	0	0	---	0.00	29.953 
00:55	76.0	76.0	77.1	79	69.0	0	0	---	0.00	29.953 
01:00	76.0	76.0	77.1	79	69.0	0	1	90	0.00	29.944 
01:05	75.8	75.8	76.8	79	68.8	0	0	---	0.00	29.944 
01:10	75.8	75.8	76.8	79	68.8	0	1	90	0.00	29.944 
01:15	75.6	75.6	76.5	79	68.6	0	1	90	0.00	29.938 
01:20	75.6	75.6	76.4	80	69.0	0	1	90	0.00	29.938 
01:25	75.6	75.6	76.4	80	69.0	0	0	---	0.00	29.938 
01:30	75.4	75.4	76.1	80	68.8	0	1	90	0.00	29.937 
01:35	75.4	75.4	76.1	80	68.8	0	0	---	0.00	29.937 
01:40	75.3	75.3	76.0	80	68.7	0	0	---	0.00	29.937 
01:45	75.3	75.3	76.0	80	68.7	0	0	---	0.00	29.942 
01:50	75.1	75.1	75.7	80	68.5	0	0	---	0.00	29.942 
01:55	75.1	75.1	75.6	81	68.9	0	0	---	0.00	29.942 
02:00	75.1	75.1	75.6	81	68.9	0	1	90	0.00	29.948 
02:05	74.9	74.9	74.9	81	68.7	0	0	---	0.00	29.948 
02:10	74.9	74.9	74.9	81	68.7	0	0	---	0.00	29.948 
02:15	74.7	74.7	74.7	81	68.5	0	0	---	0.00	29.943 
02:20	74.6	74.6	74.6	81	68.4	0	0	---	0.00	29.943 
02:25	74.6	74.6	74.6	81	68.4	0	0	---	0.00	29.943 
02:30	74.4	74.4	74.4	82	68.5	0	0	---	0.00	29.940 
02:35	74.4	74.4	74.4	82	68.5	0	0	---	0.00	29.940 
02:40	74.2	74.2	74.2	82	68.3	0	0	---	0.00	29.940 
02:45	74.0	74.0	74.0	82	68.1	0	0	---	0.00	29.942 
02:50	74.0	74.0	74.0	82	68.1	0	0	---	0.00	29.942 
02:55	73.9	73.9	73.9	83	68.4	0	0	---	0.00	29.942 
03:00	73.7	73.7	73.7	83	68.2	0	0	---	0.00	29.946 
03:05	73.5	73.5	73.5	84	68.4	0	0	---	0.00	29.946 
03:10	73.5	73.5	73.5	84	68.4	0	0	---	0.00	29.946 
03:15	73.3	73.3	73.3	84	68.2	0	0	---	0.00	29.940 
03:20	73.2	73.2	73.2	84	68.1	0	0	---	0.00	29.940 
03:25	73.0	73.0	73.0	85	68.2	0	0	---	0.00	29.940 
03:30	72.8	72.8	72.8	85	68.0	0	0	---	0.00	29.942 
03:35	72.7	72.7	72.7	85	67.9	0	0	---	0.00	29.942 
03:40	72.7	72.7	72.7	86	68.3	0	0	---	0.00	29.942 
03:45	72.5	72.5	72.5	86	68.1	0	0	---	0.00	29.948 
03:50	72.5	72.5	72.5	86	68.1	0	0	---	0.00	29.948 
03:55	72.3	72.3	72.3	87	68.2	0	0	---	0.00	29.948 
04:00	72.3	72.3	72.3	87	68.2	0	0	---	0.00	29.943 
04:05	72.3	72.3	72.3	87	68.2	0	0	---	0.00	29.943 
04:10	72.3	72.3	72.3	87	68.2	0	0	---	0.00	29.943 
04:15	72.1	72.1	72.1	87	68.0	0	0	---	0.00	29.939 
04:20	72.1	72.1	72.1	88	68.3	0	0	---	0.00	29.939 
04:25	72.1	72.1	72.1	88	68.3	0	0	---	0.00	29.939 
04:30	72.0	72.0	72.0	88	68.2	0	0	---	0.00	29.950 
04:35	71.8	71.8	71.8	88	68.0	0	0	---	0.00	29.950 
04:40	71.8	71.8	71.8	88	68.0	0	0	---	0.00	29.950 
04:45	71.6	71.6	71.6	88	67.8	0	0	---	0.00	29.954 
04:50	71.6	71.6	71.6	88	67.8	0	0	---	0.00	29.954 
04:55	71.6	71.6	71.6	88	67.8	0	0	---	0.00	29.954 
05:00	71.6	71.6	71.6	88	67.8	0	0	---	0.00	29.963 
05:05	71.6	71.6	71.6	88	67.8	0	0	---	0.00	29.963 
05:10	71.6	71.6	71.6	88	67.8	0	0	---	0.00	29.963 
05:15	71.6	71.6	71.6	88	67.8	0	0	---	0.00	29.968 
05:20	71.6	71.6	71.6	88	67.8	0	0	---	0.00	29.968 
05:25	71.6	71.6	71.6	88	67.8	0	0	---	0.00	29.968 
05:30	71.6	71.6	71.6	88	67.8	0	0	---	0.00	29.969 
05:35	71.5	71.5	71.5	88	67.7	0	0	---	0.00	29.969 
05:40	71.5	71.5	71.5	88	67.7	0	0	---	0.00	29.969 
05:45	71.3	71.3	71.3	88	67.6	0	0	---	0.00	29.967 
05:50	71.3	71.3	71.3	88	67.6	0	0	---	0.00	29.967 
05:55	71.3	71.3	71.3	88	67.6	0	0	---	0.00	29.967 
06:00	71.1	71.1	71.1	88	67.4	0	0	---	0.00	29.964 
06:05	71.1	71.1	71.1	88	67.4	0	0	---	0.00	29.964 
06:10	71.1	71.1	71.1	88	67.4	0	0	---	0.00	29.964 
06:15	71.1	71.1	71.1	88	67.4	0	0	---	0.00	29.966 
06:20	71.1	71.1	71.1	88	67.4	0	0	---	0.00	29.966 
06:25	71.1	71.1	71.1	88	67.4	0	1	90	0.00	29.966 
06:30	71.1	71.1	71.1	88	67.4	0	1	90	0.00	29.957 
06:35	71.3	71.3	71.3	88	67.6	0	1	90	0.00	29.957 
06:40	71.5	71.5	71.5	87	67.4	0	1	90	0.00	29.957 
06:45	71.6	71.6	71.6	86	67.2	0	1	90	0.00	29.949 
06:50	71.6	71.6	71.6	86	67.2	0	2	90	0.00	29.949 
06:55	71.8	71.8	71.8	86	67.4	0	1	90	0.00	29.949 
07:00	72.0	72.0	72.0	85	67.2	0	1	90	0.00	29.948 
07:05	72.0	72.0	72.0	85	67.2	0	1	90	0.00	29.948 
07:10	72.1	72.1	72.1	84	67.0	0	1	90	0.00	29.948 
07:15	72.1	72.1	72.1	84	67.0	0	2	90	0.00	29.947 
07:20	72.3	72.3	72.3	84	67.2	0	1	90	0.00	29.947 
07:25	72.5	72.5	72.5	84	67.4	0	1	90	0.00	29.947 
07:30	72.8	72.8	72.8	83	67.3	0	2	90	0.00	29.955 
07:35	73.3	73.3	73.3	81	67.1	0	1	90	0.00	29.955 
07:40	73.9	73.9	73.9	80	67.3	0	2	90	0.00	29.955 
07:45	74.4	74.4	74.4	79	67.4	0	2	338	0.00	29.957 
07:50	74.9	74.9	74.9	78	67.6	0	2	338	0.00	29.957 
07:55	75.4	75.4	76.5	76	67.3	0	2	22	0.00	29.957 
08:00	75.8	75.8	77.1	75	67.3	1	3	292	0.00	29.961 
08:05	76.3	76.3	77.8	74	67.4	1	4	292	0.00	29.961 
08:10	76.8	76.8	78.5	73	67.5	0	3	338	0.00	29.961 
08:15	77.4	77.4	79.3	72	67.6	1	2	315	0.00	29.966 
08:20	77.7	77.7	79.7	71	67.5	1	4	45	0.00	29.966 
08:25	77.9	77.9	79.9	71	67.7	1	3	292	0.00	29.966 
08:30	77.9	77.9	79.9	71	67.7	1	5	292	0.00	29.968 
08:35	77.9	77.9	79.9	71	67.7	0	3	292	0.00	29.968 
08:40	77.9	77.9	79.9	71	67.7	1	3	90	0.00	29.968 
08:45	78.1	78.1	80.2	71	67.9	1	4	315	0.00	29.952 
08:50	77.9	77.9	79.9	71	67.7	1	3	292	0.00	29.952 
08:55	77.9	77.9	79.9	71	67.7	1	3	292	0.00	29.952 
09:00	78.3	78.3	80.5	71	68.1	1	3	248	0.00	29.950 
09:05	78.6	78.6	80.8	70	68.0	1	4	270	0.00	29.950 
09:10	79.0	79.0	81.4	70	68.4	1	3	315	0.00	29.950 
09:15	79.2	79.2	81.6	69	68.1	1	6	292	0.00	29.950 
09:20	79.4	79.4	81.9	69	68.3	2	4	270	0.00	29.950 
09:25	79.8	79.8	82.4	68	68.3	2	4	292	0.00	29.950 
09:30	80.1	80.1	82.9	68	68.6	1	4	270	0.00	29.952 
09:35	80.5	80.5	83.3	67	68.5	2	6	270	0.00	29.952 
09:40	80.7	80.7	83.5	66	68.3	1	4	270	0.00	29.952 
09:45	81.1	81.1	84.1	66	68.6	1	4	90	0.00	29.952 
09:50	81.2	81.2	84.3	66	68.7	1	5	270	0.00	29.952 
09:55	81.6	81.6	84.7	65	68.7	1	4	270	0.00	29.952 
10:00	81.8	81.8	85.1	65	68.9	1	4	292	0.00	29.942 
10:05	81.8	81.8	84.9	64	68.4	2	7	270	0.00	29.942 
10:10	81.8	81.8	84.7	63	67.9	3	7	248	0.00	29.942 
10:15	82.0	82.0	85.0	63	68.1	2	6	248	0.00	29.935 
10:20	82.4	82.4	85.6	63	68.5	1	4	292	0.00	29.935 
10:25	82.6	82.6	85.9	63	68.7	1	4	292	0.00	29.935 
10:30	82.6	82.6	85.7	62	68.2	2	4	270	0.00	29.923 
10:35	82.6	82.6	86.2	64	69.2	1	4	270	0.00	29.923 
10:40	82.8	82.8	86.3	63	68.9	2	5	270	0.00	29.923 
10:45	83.0	83.0	86.4	62	68.6	2	5	248	0.00	29.917 
10:50	83.4	83.4	87.0	62	69.0	2	7	270	0.00	29.917 
10:55	83.6	83.6	87.4	62	69.2	2	5	292	0.00	29.917 
11:00	84.0	84.0	87.8	61	69.1	2	5	270	0.00	29.906 
11:05	84.0	84.0	87.8	61	69.1	3	9	270	0.00	29.906 
11:10	84.1	84.1	88.0	61	69.2	2	6	292	0.00	29.906 
11:15	84.1	84.1	88.0	61	69.2	2	9	270	0.00	29.907 
11:20	84.5	84.5	88.7	61	69.5	2	5	270	0.00	29.907 
11:25	84.7	84.7	88.4	59	68.8	3	11	270	0.00	29.907 
11:30	84.5	84.5	88.1	59	68.6	2	7	270	0.00	29.905 
11:35	84.3	84.3	87.8	59	68.4	3	11	292	0.00	29.905 
11:40	84.3	84.3	88.3	61	69.4	2	6	248	0.00	29.905 
11:45	84.7	84.7	88.7	60	69.2	2	6	270	0.00	29.893 
11:50	85.1	85.1	88.8	58	68.6	2	4	270	0.00	29.893 
11:55	85.3	85.3	89.8	60	69.8	1	5	315	0.00	29.893 
12:00	85.5	85.5	89.5	58	69.0	2	6	270	0.00	29.889 
12:05	85.9	85.9	90.6	59	69.9	2	4	270	0.00	29.889 
12:10	86.1	86.1	90.6	58	69.6	2	5	248	0.00	29.889 
12:15	86.5	86.5	91.0	57	69.4	2	6	270	0.00	29.882 
12:20	86.1	86.1	89.9	56	68.5	2	7	248	0.00	29.882 
12:25	85.7	85.7	89.9	58	69.2	2	4	248	0.00	29.882 
12:30	85.5	85.5	89.5	58	69.0	2	6	270	0.00	29.874 
12:35	85.1	85.1	88.8	58	68.6	2	7	270	0.00	29.874 
12:40	84.9	84.9	88.5	58	68.4	2	6	248	0.00	29.874 
12:45	84.7	84.7	88.4	59	68.8	2	6	292	0.00	29.862 
12:50	84.5	84.5	88.1	59	68.6	3	6	248	0.00	29.862 
12:55	84.3	84.3	88.0	60	68.9	2	5	248	0.00	29.862 
13:00	84.5	84.5	88.4	60	69.1	2	5	270	0.00	29.842 
13:05	84.9	84.9	89.1	60	69.4	2	9	270	0.00	29.842 
13:10	85.3	85.3	89.8	60	69.8	2	5	292	0.00	29.842 
13:15	85.9	85.9	90.6	59	69.9	2	5	270	0.00	29.834 
13:20	86.5	86.5	91.3	58	69.9	2	7	248	0.00	29.834 
13:25	87.0	87.0	91.5	56	69.4	2	5	270	0.00	29.834 
13:30	87.0	87.0	91.5	56	69.4	2	6	270	0.00	29.829 
13:35	86.7	86.7	91.3	57	69.6	3	9	292	0.00	29.829 
13:40	86.7	86.7	91.0	56	69.1	2	11	270	0.00	29.829 
13:45	86.7	86.7	91.3	57	69.6	2	6	270	0.00	29.821 
13:50	87.0	87.0	91.1	55	68.8	3	7	270	0.00	29.821 
13:55	87.4	87.4	91.5	54	68.7	3	10	270	0.00	29.821 
14:00	87.6	87.6	91.8	54	68.9	3	12	270	0.00	29.842 
14:05	88.2	88.2	92.9	54	69.4	2	5	248	0.00	29.842 
14:10	88.6	88.6	92.9	52	68.7	2	5	292	0.00	29.842 
14:15	88.8	88.8	93.2	52	68.9	2	7	292	0.00	29.842 
14:20	88.8	88.8	93.2	52	68.9	3	7	270	0.00	29.842 
14:25	88.8	88.8	93.2	52	68.9	2	7	248	0.00	29.842 
14:30	88.4	88.4	93.3	54	69.6	2	11	270	0.00	29.841 
14:35	88.6	88.6	93.7	54	69.8	2	7	292	0.00	29.841 
14:40	88.8	88.8	93.2	52	68.9	2	7	270	0.00	29.841 
14:45	88.8	88.8	92.8	51	68.3	3	7	248	0.00	29.856 
14:50	89.0	89.0	93.2	51	68.5	3	10	248	0.00	29.856 
14:55	89.0	89.0	93.6	52	69.0	3	7	270	0.00	29.856 
15:00	89.3	89.3	93.7	51	68.8	3	6	270	0.00	29.862 
15:05	89.5	89.5	93.7	50	68.4	2	5	270	0.00	29.862 
15:10	89.7	89.7	94.5	51	69.1	2	5	270	0.00	29.862 
15:15	89.7	89.7	94.0	50	68.5	3	6	270	0.00	29.862 
15:20	89.7	89.7	94.9	52	69.7	2	4	292	0.00	29.862 
15:25	89.5	89.5	93.7	50	68.4	3	6	270	0.00	29.862 
15:30	89.9	89.9	94.9	51	69.3	1	5	248	0.00	29.862 
15:35	90.3	90.3	94.3	48	67.9	3	7	270	0.00	29.862 
15:40	90.1	90.1	94.3	49	68.3	2	4	270	0.00	29.862 
15:45	90.3	90.3	94.3	48	67.9	2	7	270	0.00	29.866 
15:50	90.7	90.7	94.1	46	67.0	2	4	270	0.00	29.866 
15:55	90.7	90.7	94.5	47	67.7	3	7	292	0.00	29.866 
16:00	90.1	90.1	93.9	48	67.7	3	6	270	0.00	29.865 
16:05	89.9	89.9	93.5	48	67.5	3	7	270	0.00	29.865 
16:10	89.9	89.9	94.4	50	68.7	2	5	270	0.00	29.865 
16:15	89.9	89.9	94.0	49	68.1	3	6	270	0.00	29.865 
16:20	90.3	90.3	94.7	49	68.5	2	5	292	0.00	29.865 
16:25	90.5	90.5	95.1	49	68.7	2	7	270	0.00	29.865 
16:30	90.7	90.7	95.0	48	68.3	2	6	248	0.00	29.861 
16:35	91.0	91.0	96.0	49	69.1	1	4	270	0.00	29.861 
16:40	91.0	91.0	95.6	48	68.5	1	4	248	0.00	29.861 
16:45	91.4	91.4	96.8	49	69.5	1	3	248	0.00	29.865 
16:50	91.4	91.4	96.3	48	68.9	2	4	292	0.00	29.865 
16:55	91.4	91.4	96.3	48	68.9	1	5	270	0.00	29.865 
17:00	91.4	91.4	96.8	49	69.5	1	2	270	0.00	29.867 
17:05	90.7	90.7	95.0	48	68.3	3	9	270	0.00	29.867 
17:10	90.1	90.1	94.3	49	68.3	2	5	270	0.00	29.867 
17:15	89.3	89.3	93.3	50	68.2	2	4	270	0.00	29.871 
17:20	89.0	89.0	93.2	51	68.5	1	2	270	0.00	29.871 
17:25	89.0	89.0	92.8	50	67.9	2	7	270	0.00	29.871 
17:30	88.8	88.8	92.8	51	68.3	1	4	270	0.00	29.874 
17:35	88.8	88.8	92.8	51	68.3	1	3	270	0.00	29.874 
17:40	88.8	88.8	93.2	52	68.9	1	3	270	0.00	29.874 
17:45	89.0	89.0	93.2	51	68.5	1	4	270	0.00	29.871 
17:50	89.3	89.3	93.7	51	68.8	1	4	270	0.00	29.871 
17:55	89.5	89.5	93.2	49	67.8	1	6	248	0.00	29.871 
18:00	89.0	89.0	92.8	50	67.9	2	7	248	0.00	29.873 
18:05	88.2	88.2	91.8	51	67.7	2	5	270	0.00	29.873 
18:10	88.0	88.0	91.8	52	68.1	2	6	270	0.00	29.873 
18:15	88.0	88.0	91.8	52	68.1	1	5	270	0.00	29.871 
18:20	88.0	88.0	92.2	53	68.7	1	5	270	0.00	29.871 
18:25	88.0	88.0	91.8	52	68.1	2	4	270	0.00	29.871 
18:30	88.0	88.0	92.2	53	68.7	1	7	270	0.00	29.873 
18:35	87.6	87.6	91.1	52	67.8	1	4	270	0.00	29.873 
18:40	87.4	87.4	91.5	54	68.7	0	3	270	0.00	29.873 
18:45	87.2	87.2	90.8	53	67.9	1	3	270	0.00	29.875 
18:50	87.2	87.2	90.8	53	67.9	0	3	270	0.00	29.875 
18:55	87.2	87.2	91.1	54	68.5	0	2	270	0.00	29.875 
19:00	87.2	87.2	90.8	53	67.9	1	4	270	0.00	29.877 
19:05	87.2	87.2	90.8	53	67.9	1	3	270	0.00	29.877 
19:10	87.2	87.2	90.8	53	67.9	1	5	270	0.00	29.877 
19:15	87.2	87.2	90.8	53	67.9	1	5	292	0.00	29.877 
19:20	87.0	87.0	90.4	53	67.8	1	6	292	0.00	29.877 
19:25	87.2	87.2	90.8	53	67.9	1	4	292	0.00	29.877 
19:30	87.4	87.4	90.7	52	67.6	2	5	292	0.00	29.876 
19:35	87.2	87.2	90.8	53	67.9	1	3	292	0.00	29.876 
19:40	87.0	87.0	90.8	54	68.3	1	5	292	0.00	29.876 
19:45	86.7	86.7	90.3	54	68.0	1	3	292	0.00	29.881 
19:50	86.5	86.5	90.3	55	68.4	1	4	292	0.00	29.881 
19:55	86.5	86.5	90.3	55	68.4	0	2	292	0.00	29.881 
20:00	86.7	86.7	90.6	55	68.6	0	2	292	0.00	29.882 
20:05	86.7	86.7	90.6	55	68.6	1	3	90	0.00	29.882 
20:10	86.7	86.7	90.3	54	68.0	1	3	270	0.00	29.882 
20:15	86.7	86.7	90.3	54	68.0	1	3	270	0.00	29.882 
20:20	86.5	86.5	90.3	55	68.4	0	2	270	0.00	29.882 
20:25	86.3	86.3	89.9	55	68.2	0	3	270	0.00	29.882 
20:30	86.3	86.3	89.9	55	68.2	0	2	270	0.00	29.888 
20:35	86.1	86.1	89.6	55	68.0	0	3	270	0.00	29.888 
20:40	85.9	85.9	89.2	55	67.8	1	3	292	0.00	29.888 
20:45	85.9	85.9	89.2	55	67.8	1	3	292	0.00	29.887 
20:50	85.7	85.7	89.2	56	68.2	0	2	68	0.00	29.887 
20:55	85.7	85.7	89.2	56	68.2	0	3	292	0.00	29.887 
21:00	85.5	85.5	88.9	56	68.0	0	3	292	0.00	29.889 
21:05	85.3	85.3	88.5	56	67.8	0	2	292	0.00	29.889 
21:10	85.3	85.3	88.5	56	67.8	0	2	292	0.00	29.889 
21:15	85.1	85.1	88.5	57	68.1	0	2	292	0.00	29.887 
21:20	84.9	84.9	88.2	57	67.9	0	1	292	0.00	29.887 
21:25	84.7	84.7	87.9	57	67.7	0	2	292	0.00	29.887 
21:30	84.5	84.5	87.8	58	68.1	0	1	292	0.00	29.885 
21:35	84.5	84.5	87.8	58	68.1	0	2	292	0.00	29.885 
21:40	84.5	84.5	87.8	58	68.1	0	1	292	0.00	29.885 
21:45	84.3	84.3	87.5	58	67.9	0	2	292	0.00	29.894 
21:50	84.3	84.3	87.5	58	67.9	0	2	292	0.00	29.894 
21:55	84.1	84.1	87.4	59	68.2	0	2	292	0.00	29.894 
22:00	84.0	84.0	87.3	59	68.1	0	2	292	0.00	29.898 
22:05	84.0	84.0	87.3	59	68.1	0	1	292	0.00	29.898 
22:10	83.8	83.8	87.2	60	68.4	0	1	292	0.00	29.898 
22:15	83.8	83.8	87.2	60	68.4	0	3	292	0.00	29.899 
22:20	83.6	83.6	86.9	60	68.2	0	2	292	0.00	29.899 
22:25	83.6	83.6	86.9	60	68.2	0	2	292	0.00	29.899 
22:30	83.6	83.6	86.9	60	68.2	0	2	292	0.00	29.904 
22:35	83.4	83.4	86.5	60	68.0	0	1	292	0.00	29.904 
22:40	83.4	83.4	86.8	61	68.5	0	2	292	0.00	29.904 
22:45	83.2	83.2	86.2	60	67.8	0	1	292	0.00	29.915 
22:50	83.2	83.2	86.5	61	68.3	0	2	292	0.00	29.915 
22:55	83.2	83.2	86.5	61	68.3	0	2	292	0.00	29.915 
23:00	83.0	83.0	86.1	61	68.1	0	1	292	0.00	29.918 
23:05	83.0	83.0	86.1	61	68.1	0	1	292	0.00	29.918 
23:10	82.8	82.8	85.8	61	67.9	0	1	292	0.00	29.918 
23:15	82.6	82.6	85.7	62	68.2	0	0	---	0.00	29.923 
23:20	82.4	82.4	85.4	62	68.0	0	1	292	0.00	29.923 
23:25	82.2	82.2	85.3	63	68.3	0	1	292	0.00	29.923 
23:30	82.0	82.0	85.0	63	68.1	0	1	292	0.00	29.916 
23:35	82.0	82.0	85.0	63	68.1	0	1	292	0.00	29.916 
23:40	81.8	81.8	84.7	63	67.9	0	1	292	0.00	29.916 
23:45	81.8	81.8	84.7	63	67.9	0	2	292	0.00	29.914 
23:50	81.8	81.8	84.7	63	67.9	0	1	292	0.00	29.914 
23:55	81.6	81.6	84.6	64	68.2	0	1	292	0.00	29.914 

CoCoRaHS
IN-AL-39
A2 Web Hosting
Creative Commons License
GoDaddy
search engine by freefind advanced

loaded 2018-11-16 00:04:45 • last modified 2010-11-18 10:43:29
Privacy PolicyDisclaimer
• wx.awcolley.com is powered by PmWiki v.2002016 •
• all content (unless otherwise noted) © 2018 A W Colley